Location: Newark
(51.7378°N, 19.8125°E)
Time: 19:06:53
(UTC+00:00)

Envisat - Pass Details

Date: 11 December 2019
Orbit: 764 x 766 km, 98.1° (Epoch: 28 January)

Event Time Altitude Azimuth Distance (km) Brightness Sun altitude
Rises 16:59:55 0° 182° (S) 3,222 6.4 -21.8°
Reaches altitude 10° 17:02:18 10° 189° (S) 2,300 5.7 -22.2°
Maximum altitude 17:07:10 46° 262° (W) 1,032 4.1 -22.9°
Drops below altitude 10° 17:12:04 10° 335° (NNW) 2,317 5.7 -23.7°
Sets 17:14:29 0° 342° (NNW) 3,248 6.4 -24.0°
